Tracking 33747 objects as of 12-Apr-2026
HD Live streaming from Space Station
objects crossing your sky now

STARLINK-36257

Track STARLINK-36257 now!
10-day predictions
STARLINK-36257 is classified as:


NORAD ID: 67903
Int'l Code: 2026-035AA
Perigee: 397.3 km
Apogee: 400.0 km
Inclination: 97.3 °
Period: 92.4 minutes
Semi major axis: 6769 km
RCS: Unknown
Launch date: February 21, 2026
Source: United States (US)
Launch site: AIR FORCE WESTERN TEST RANGE (AFWTR)
Your satellite tracking list
Your tracking list is empty




NASA's NSSDC Master Catalog

Two Line Element Set (TLE):
1 67903U 26035AA  26101.83334491 -.01875825  00000-0 -27607-1 0  9997
2 67903  97.2854  35.8406 0002005  74.3357 109.0092 15.58666216  6210
Source of the keplerian elements: AFSPC